| time (UTC) | temp C | wind direction | speed KPH | gust KPH | rain 1hr cm | rain 24hr cm | rain mn cm | humidity % | barometer mb |
| 20260506062039 | 10 | 37 | 11.3 | 30.6 | 0.00 | 0.00 | 0.00 | 82 | 1012.6 |
| 20260506061552 | 10 | 344 | 9.7 | 30.6 | 0.00 | 0.00 | 0.00 | 82 | 1012.5 |
| 20260506061039 | 10 | 347 | 8.0 | 22.5 | 0.00 | 0.00 | 0.00 | 82 | 1012.4 |
| 20260506060539 | 10 | 5 | 9.7 | 22.5 | 0.00 | 0.00 | 0.00 | 82 | 1012.4 |
| 20260506051038 | 10 | 351 | 9.7 | 20.9 | 0.00 | 0.00 | 0.00 | 84 | 1013.0 |
| 20260506050538 | 10 | 330 | 11.3 | 19.3 | 0.00 | 0.00 | 0.00 | 84 | 1012.9 |
| 20260506045037 | 10 | 352 | 12.9 | 24.1 | 0.00 | 0.00 | 0.00 | 84 | 1012.7 |
| 20260506044551 | 10 | 344 | 12.9 | 24.1 | 0.00 | 0.00 | 0.00 | 84 | 1012.5 |
| 20260506044038 | 10 | 346 | 6.4 | 20.9 | 0.00 | 0.00 | 0.00 | 84 | 1012.6 |
| 20260506043537 | 10 | 322 | 11.3 | 20.9 | 0.00 | 0.00 | 0.00 | 84 | 1012.6 |
| 20260506043052 | 10 | 5 | 9.7 | 20.9 | 0.00 | 0.00 | 0.00 | 83 | 1012.4 |
| 20260506042539 | 10 | 350 | 8.0 | 22.5 | 0.00 | 0.00 | 0.00 | 82 | 1012.5 |
| 20260506042038 | 10 | 360 | 12.9 | 22.5 | 0.00 | 0.00 | 0.00 | 82 | 1012.5 |
| 20260506041551 | 10 | 338 | 11.3 | 22.5 | 0.00 | 0.00 | 0.00 | 81 | 1012.5 |
| 20260506041038 | 10 | 21 | 6.4 | 22.5 | 0.00 | 0.00 | 0.00 | 81 | 1012.5 |
| 20260506040538 | 10 | 19 | 9.7 | 27.4 | 0.00 | 0.00 | 0.00 | 81 | 1012.4 |
| 20260506040051 | 10 | 5 | 11.3 | 27.4 | 0.00 | 0.00 | 0.00 | 81 | 1012.3 |
| 20260506035538 | 10 | 346 | 12.9 | 29.0 | 0.00 | 0.05 | 0.00 | 81 | 1012.2 |
| 20260506035038 | 10 | 335 | 11.3 | 29.0 | 0.00 | 0.05 | 0.00 | 81 | 1012.4 |
| 20260506034553 | 10 | 334 | 11.3 | 24.1 | 0.00 | 0.05 | 0.00 | 81 | 1012.3 |
| 20260506034038 | 10 | 330 | 11.3 | 22.5 | 0.00 | 0.05 | 0.00 | 81 | 1012.4 |
| 20260506033538 | 10 | 360 | 9.7 | 17.7 | 0.00 | 0.05 | 0.00 | 81 | 1012.3 |
| 20260506033051 | 10 | 314 | 8.0 | 29.0 | 0.00 | 0.05 | 0.00 | 80 | 1012.5 |
| 20260506032538 | 10 | 5 | 14.5 | 29.0 | 0.00 | 0.05 | 0.00 | 80 | 1012.3 |
| 20260506032038 | 10 | 323 | 9.7 | 19.3 | 0.00 | 0.05 | 0.00 | 80 | 1012.2 |
| 20260506031551 | 10 | 306 | 8.0 | 22.5 | 0.00 | 0.05 | 0.00 | 80 | 1012.2 |
| 20260506031040 | 10 | 340 | 11.3 | 22.5 | 0.00 | 0.05 | 0.00 | 80 | 1012.2 |
| 20260506030537 | 10 | 342 | 12.9 | 25.7 | 0.00 | 0.05 | 0.00 | 80 | 1012.3 |
| 20260506030059 | 10 | 340 | 8.0 | 25.7 | 0.00 | 0.05 | 0.00 | 80 | 1012.0 |
| 20260506025537 | 10 | 317 | 12.9 | 22.5 | 0.00 | 0.05 | 0.00 | 80 | 1011.9 |
| 20260506025041 | 10 | 327 | 11.3 | 22.5 | 0.00 | 0.05 | 0.00 | 80 | 1011.8 |
| 20260506024603 | 10 | 346 | 12.9 | 22.5 | 0.00 | 0.05 | 0.00 | 80 | 1011.6 |
| 20260506024038 | 10 | 334 | 8.0 | 16.1 | 0.00 | 0.05 | 0.00 | 81 | 1011.5 |
| 20260506023538 | 10 | 360 | 8.0 | 25.7 | 0.00 | 0.05 | 0.00 | 80 | 1011.3 |
| 20260506023102 | 10 | 82 | 8.0 | 25.7 | 0.00 | 0.05 | 0.00 | 80 | 1011.1 |
| 20260506022538 | 10 | 327 | 6.4 | 16.1 | 0.00 | 0.05 | 0.00 | 81 | 1011.1 |
| 20260506022038 | 10 | 352 | 6.4 | 22.5 | 0.00 | 0.05 | 0.00 | 80 | 1011.0 |
| 20260506021555 | 10 | 314 | 8.0 | 22.5 | 0.00 | 0.05 | 0.00 | 81 | 1010.7 |
| 20260506021038 | 10 | 317 | 9.7 | 22.5 | 0.00 | 0.05 | 0.00 | 80 | 1010.4 |
| 20260506020537 | 10 | 328 | 8.0 | 16.1 | 0.00 | 0.05 | 0.00 | 80 | 1010.3 |
| 20260506020045 | 11 | 13 | 8.0 | 22.5 | 0.00 | 0.05 | 0.00 | 80 | 1010.1 |
| 20260506015538 | 11 | 27 | 8.0 | 22.5 | 0.00 | 0.05 | 0.00 | 80 | 1010.1 |
| 20260506015038 | 11 | 327 | 8.0 | 17.7 | 0.00 | 0.05 | 0.00 | 80 | 1010.2 |
| 20260506014552 | 11 | 338 | 9.7 | 19.3 | 0.00 | 0.05 | 0.00 | 80 | 1010.1 |
| 20260506014035 | 11 | 327 | 9.7 | 19.3 | 0.00 | 0.05 | 0.00 | 80 | 1010.0 |
| 20260506013539 | 11 | 11 | 6.4 | 17.7 | 0.00 | 0.05 | 0.00 | 81 | 1009.8 |
| 20260506013100 | 11 | 342 | 8.0 | 24.1 | 0.00 | 0.05 | 0.00 | 81 | 1009.8 |
| 20260506012537 | 11 | 352 | 9.7 | 24.1 | 0.00 | 0.05 | 0.00 | 80 | 1009.8 |
| 20260506012038 | 11 | 352 | 16.1 | 24.1 | 0.00 | 0.05 | 0.00 | 80 | 1009.9 |
| 20260506011615 | 11 | 23 | 11.3 | 25.7 | 0.00 | 0.05 | 0.00 | 80 | 1009.6 |
| 20260506011038 | 11 | 294 | 12.9 | 27.4 | 0.00 | 0.05 | 0.00 | 80 | 1009.7 |
| 20260506010538 | 11 | 331 | 12.9 | 27.4 | 0.00 | 0.05 | 0.00 | 81 | 1009.7 |
| 20260506010047 | 11 | 335 | 11.3 | 24.1 | 0.00 | 0.05 | 0.00 | 81 | 1009.5 |
| 20260506005538 | 11 | 327 | 12.9 | 25.7 | 0.00 | 0.05 | 0.00 | 81 | 1009.6 |
| 20260506005040 | 11 | 19 | 11.3 | 25.7 | 0.00 | 0.05 | 0.00 | 81 | 1009.4 |
| 20260506004546 | 11 | 326 | 12.9 | 25.7 | 0.00 | 0.05 | 0.00 | 81 | 1009.7 |
| 20260506004038 | 11 | 342 | 14.5 | 25.7 | 0.00 | 0.05 | 0.00 | 81 | 1009.5 |
| 20260506003538 | 11 | 344 | 12.9 | 30.6 | 0.00 | 0.05 | 0.00 | 81 | 1009.6 |
| 20260506003051 | 11 | 342 | 14.5 | 30.6 | 0.00 | 0.05 | 0.00 | 81 | 1009.3 |
| 20260506002537 | 11 | 326 | 9.7 | 27.4 | 0.00 | 0.05 | 0.00 | 81 | 1008.8 |
| 20260506002037 | 11 | 32 | 9.7 | 29.0 | 0.00 | 0.05 | 0.00 | 81 | 1009.0 |
| 20260506001557 | 11 | 318 | 11.3 | 29.0 | 0.00 | 0.05 | 0.00 | 81 | 1008.9 |
| 20260506001038 | 11 | 329 | 12.9 | 25.7 | 0.00 | 0.05 | 0.00 | 81 | 1008.9 |
| 20260506000538 | 11 | 330 | 11.3 | 29.0 | 0.00 | 0.05 | 0.00 | 82 | 1009.4 |
| 20260506000059 | 11 | 317 | 12.9 | 32.2 | 0.00 | 0.05 | 0.00 | 82 | 1009.4 |
| 20260505235538 | 11 | 323 | 11.3 | 32.2 | 0.00 | 0.05 | 0.00 | 82 | 1009.3 |
| 20260505235039 | 11 | 10 | 16.1 | 32.2 | 0.00 | 0.05 | 0.00 | 82 | 1009.2 |
| 20260505234549 | 11 | 323 | 11.3 | 32.2 | 0.00 | 0.05 | 0.00 | 82 | 1009.2 |
| 20260505234040 | 12 | 334 | 12.9 | 32.2 | 0.00 | 0.05 | 0.00 | 82 | 1009.2 |
| 20260505233536 | 12 | 5 | 16.1 | 30.6 | 0.00 | 0.05 | 0.00 | 82 | 1009.1 |
| 20260505233050 | 12 | 5 | 16.1 | 25.7 | 0.00 | 0.05 | 0.00 | 82 | 1008.8 |
| 20260505232537 | 12 | 335 | 8.0 | 25.7 | 0.00 | 0.05 | 0.00 | 83 | 1008.8 |
| 20260505232039 | 12 | 21 | 11.3 | 27.4 | 0.00 | 0.05 | 0.00 | 82 | 1008.8 |
| 20260505231549 | 12 | 325 | 12.9 | 32.2 | 0.00 | 0.05 | 0.00 | 82 | 1008.5 |
| 20260505231037 | 12 | 338 | 11.3 | 32.2 | 0.00 | 0.05 | 0.00 | 82 | 1008.2 |
| 20260505230538 | 12 | 14 | 14.5 | 32.2 | 0.00 | 0.05 | 0.00 | 82 | 1008.1 |
| 20260505230044 | 12 | 313 | 12.9 | 27.4 | 0.00 | 0.05 | 0.00 | 82 | 1008.2 |
| 20260505225536 | 12 | 317 | 14.5 | 32.2 | 0.00 | 0.05 | 0.00 | 81 | 1007.6 |
| 20260505225036 | 12 | 331 | 16.1 | 32.2 | 0.00 | 0.05 | 0.00 | 81 | 1007.7 |
| 20260505224541 | 12 | 304 | 17.7 | 30.6 | 0.00 | 0.05 | 0.00 | 81 | 1007.8 |
| 20260505224039 | 12 | 55 | 14.5 | 30.6 | 0.00 | 0.05 | 0.00 | 81 | 1007.6 |
| 20260505223545 | 13 | 320 | 16.1 | 32.2 | 0.00 | 0.05 | 0.00 | 81 | 1007.4 |
| 20260505223044 | 13 | 352 | 19.3 | 29.0 | 0.00 | 0.05 | 0.00 | 81 | 1007.4 |
| 20260505222535 | 13 | 310 | 16.1 | 29.0 | 0.00 | 0.05 | 0.00 | 82 | 1007.3 |
| 20260505222035 | 13 | 352 | 9.7 | 29.0 | 0.00 | 0.05 | 0.00 | 82 | 1007.3 |
| 20260505221600 | 13 | 325 | 11.3 | 29.0 | 0.00 | 0.05 | 0.00 | 81 | 1007.6 |
| 20260505221038 | 13 | 344 | 16.1 | 27.4 | 0.00 | 0.05 | 0.00 | 81 | 1007.6 |
| 20260505220539 | 13 | 335 | 14.5 | 30.6 | 0.00 | 0.05 | 0.00 | 81 | 1007.4 |
| 20260505220101 | 13 | 324 | 14.5 | 33.8 | 0.00 | 0.05 | 0.00 | 81 | 1006.8 |
| 20260505215537 | 13 | 328 | 19.3 | 33.8 | 0.00 | 0.05 | 0.00 | 80 | 1006.7 |
| 20260505215038 | 13 | 325 | 14.5 | 29.0 | 0.00 | 0.05 | 0.00 | 81 | 1006.9 |
| 20260505214552 | 13 | 310 | 16.1 | 29.0 | 0.00 | 0.05 | 0.00 | 81 | 1007.3 |
| 20260505214038 | 13 | 331 | 12.9 | 25.7 | 0.00 | 0.05 | 0.00 | 81 | 1007.3 |
| 20260505213535 | 14 | 325 | 16.1 | 29.0 | 0.00 | 0.05 | 0.00 | 81 | 1007.4 |
| 20260505213045 | 14 | 5 | 14.5 | 29.0 | 0.00 | 0.05 | 0.00 | 81 | 1007.5 |
| 20260505212538 | 14 | 338 | 12.9 | 25.7 | 0.00 | 0.05 | 0.00 | 81 | 1007.2 |
| 20260505212038 | 14 | 309 | 16.1 | 29.0 | 0.00 | 0.05 | 0.00 | 81 | 1007.3 |
| 20260505211548 | 14 | 44 | 14.5 | 29.0 | 0.00 | 0.05 | 0.00 | 82 | 1006.6 |
| 20260505211037 | 14 | 317 | 16.1 | 29.0 | 0.00 | 0.05 | 0.00 | 81 | 1006.8 |
| 20260505210537 | 14 | 360 | 16.1 | 29.0 | 0.00 | 0.05 | 0.00 | 81 | 1006.5 |
| 20260505210053 | 14 | 344 | 17.7 | 29.0 | 0.00 | 0.05 | 0.00 | 82 | 1006.2 |
| 20260505205537 | 14 | 352 | 12.9 | 30.6 | 0.00 | 0.05 | 0.00 | 82 | 1006.4 |
| 20260505205039 | 15 | 344 | 17.7 | 30.6 | 0.00 | 0.05 | 0.00 | 81 | 1006.8 |
| 20260505204551 | 15 | 340 | 19.3 | 30.6 | 0.00 | 0.05 | 0.00 | 81 | 1006.9 |
| 20260505204036 | 15 | 326 | 16.1 | 27.4 | 0.00 | 0.05 | 0.00 | 81 | 1006.9 |
| 20260505203537 | 15 | 344 | 12.9 | 32.2 | 0.00 | 0.05 | 0.00 | 82 | 1006.8 |
| 20260505203049 | 15 | 10 | 12.9 | 32.2 | 0.00 | 0.05 | 0.00 | 82 | 1007.0 |
| 20260505202536 | 15 | 318 | 17.7 | 32.2 | 0.00 | 0.05 | 0.00 | 81 | 1007.0 |
| 20260505202036 | 15 | 319 | 14.5 | 30.6 | 0.00 | 0.05 | 0.00 | 81 | 1007.1 |
| 20260505201549 | 15 | 351 | 16.1 | 29.0 | 0.00 | 0.05 | 0.00 | 80 | 1006.9 |
| 20260505201038 | 16 | 352 | 16.1 | 35.4 | 0.00 | 0.05 | 0.00 | 81 | 1006.6 |
| 20260505200536 | 16 | 10 | 14.5 | 35.4 | 0.00 | 0.05 | 0.00 | 80 | 1006.3 |
| 20260505200045 | 16 | 315 | 16.1 | 35.4 | 0.00 | 0.05 | 0.00 | 80 | 1006.5 |
| 20260505195537 | 16 | 352 | 17.7 | 30.6 | 0.00 | 0.05 | 0.00 | 80 | 1006.4 |
| 20260505195036 | 16 | 9 | 16.1 | 30.6 | 0.00 | 0.05 | 0.00 | 80 | 1006.0 |
| 20260505194555 | 16 | 335 | 12.9 | 30.6 | 0.00 | 0.05 | 0.00 | 80 | 1006.0 |
| 20260505194036 | 16 | 342 | 17.7 | 30.6 | 0.00 | 0.05 | 0.00 | 80 | 1006.0 |
| 20260505193538 | 16 | 336 | 14.5 | 30.6 | 0.00 | 0.05 | 0.00 | 80 | 1006.1 |
| 20260505193051 | 16 | 337 | 12.9 | 27.4 | 0.00 | 0.05 | 0.00 | 80 | 1006.3 |
| 20260505192537 | 16 | 347 | 12.9 | 22.5 | 0.00 | 0.05 | 0.00 | 80 | 1006.2 |
| 20260505192037 | 16 | 321 | 14.5 | 27.4 | 0.00 | 0.05 | 0.00 | 81 | 1006.1 |
| 20260505191550 | 16 | 333 | 14.5 | 29.0 | 0.00 | 0.05 | 0.00 | 81 | 1006.0 |
| 20260505191038 | 16 | 360 | 11.3 | 29.0 | 0.00 | 0.05 | 0.00 | 82 | 1006.0 |
| 20260505190538 | 16 | 13 | 14.5 | 32.2 | 0.00 | 0.05 | 0.00 | 81 | 1006.1 |
| 20260505190049 | 16 | 340 | 19.3 | 32.2 | 0.00 | 0.05 | 0.00 | 81 | 1006.0 |
| 20260505185537 | 16 | 336 | 11.3 | 24.1 | 0.00 | 0.05 | 0.00 | 81 | 1005.9 |
| 20260505185041 | 16 | 290 | 9.7 | 37.0 | 0.00 | 0.05 | 0.00 | 81 | 1006.3 |
| 20260505184552 | 16 | 346 | 19.3 | 37.0 | 0.00 | 0.05 | 0.00 | 80 | 1006.2 |
| 20260505184036 | 17 | 326 | 12.9 | 25.7 | 0.00 | 0.05 | 0.00 | 81 | 1006.0 |
| 20260505183540 | 17 | 309 | 14.5 | 22.5 | 0.00 | 0.05 | 0.00 | 80 | 1006.1 |
| 20260505183048 | 17 | 323 | 11.3 | 30.6 | 0.00 | 0.05 | 0.00 | 80 | 1005.6 |
| 20260505182537 | 17 | 5 | 12.9 | 30.6 | 0.00 | 0.05 | 0.00 | 80 | 1005.3 |
| 20260505182037 | 18 | 299 | 12.9 | 27.4 | 0.00 | 0.05 | 0.00 | 78 | 1005.0 |
| 20260505181547 | 19 | 328 | 6.4 | 27.4 | 0.00 | 0.05 | 0.00 | 76 | 1004.8 |
| 20260505181037 | 20 | 301 | 3.2 | 27.4 | 0.00 | 0.05 | 0.00 | 73 | 1005.0 |
| 20260505180535 | 21 | 288 | 17.7 | 27.4 | 0.00 | 0.05 | 0.00 | 68 | 1005.1 |
| 20260505180050 | 23 | 290 | 3.2 | 17.7 | 0.00 | 0.05 | 0.00 | 77 | 1005.0 |
| 20260505175536 | 23 | 150 | 9.7 | 17.7 | 0.00 | 0.05 | 0.00 | 76 | 1004.7 |
| 20260505175035 | 23 | 165 | 9.7 | 17.7 | 0.00 | 0.05 | 0.00 | 77 | 1004.5 |
| 20260505174553 | 23 | 144 | 11.3 | 17.7 | 0.00 | 0.05 | 0.00 | 77 | 1004.3 |
| 20260505174035 | 23 | 137 | 11.3 | 19.3 | 0.00 | 0.05 | 0.00 | 77 | 1004.5 |
| 20260505173535 | 23 | 143 | 11.3 | 19.3 | 0.00 | 0.05 | 0.00 | 78 | 1004.6 |
| 20260505173044 | 22 | 150 | 11.3 | 19.3 | 0.00 | 0.05 | 0.00 | 78 | 1004.7 |
| 20260505172535 | 22 | 111 | 11.3 | 19.3 | 0.00 | 0.05 | 0.00 | 78 | 1004.7 |
| 20260505172035 | 22 | 113 | 9.7 | 17.7 | 0.00 | 0.05 | 0.00 | 77 | 1004.7 |
| 20260505171546 | 22 | 127 | 8.0 | 17.7 | 0.00 | 0.05 | 0.00 | 78 | 1004.5 |
| 20260505171036 | 22 | 136 | 9.7 | 17.7 | 0.00 | 0.05 | 0.00 | 78 | 1004.5 |
| 20260505170535 | 22 | 96 | 8.0 | 14.5 | 0.00 | 0.05 | 0.00 | 78 | 1004.6 |
| 20260505170040 | 22 | 101 | 8.0 | 16.1 | 0.00 | 0.05 | 0.00 | 78 | 1004.6 |
| 20260505165538 | 22 | 153 | 8.0 | 16.1 | 0.00 | 0.05 | 0.00 | 78 | 1004.7 |
| 20260505165037 | 22 | 104 | 4.8 | 17.7 | 0.00 | 0.05 | 0.00 | 79 | 1004.7 |
| 20260505164555 | 22 | 135 | 9.7 | 20.9 | 0.00 | 0.05 | 0.00 | 78 | 1004.6 |
| 20260505164037 | 22 | 146 | 11.3 | 20.9 | 0.00 | 0.05 | 0.00 | 78 | 1004.6 |
| 20260505163536 | 22 | 121 | 8.0 | 19.3 | 0.00 | 0.05 | 0.00 | 79 | 1004.6 |
| 20260505163049 | 21 | 117 | 9.7 | 17.7 | 0.00 | 0.05 | 0.00 | 79 | 1004.5 |
| 20260505162538 | 21 | 104 | 9.7 | 19.3 | 0.00 | 0.05 | 0.00 | 79 | 1004.6 |
| 20260505162037 | 21 | 117 | 8.0 | 19.3 | 0.00 | 0.05 | 0.00 | 79 | 1004.8 |
| 20260505161557 | 21 | 158 | 9.7 | 19.3 | 0.00 | 0.05 | 0.00 | 79 | 1004.7 |
| 20260505161036 | 21 | 119 | 9.7 | 20.9 | 0.00 | 0.05 | 0.00 | 79 | 1004.7 |
| 20260505160537 | 21 | 134 | 9.7 | 20.9 | 0.00 | 0.05 | 0.00 | 78 | 1004.6 |
| 20260505153107 | 21 | 111 | 9.7 | 27.4 | 0.00 | 0.05 | 0.00 | 78 | 1004.2 |
| 20260505152541 | 21 | 113 | 17.7 | 27.4 | 0.00 | 0.05 | 0.00 | 77 | 1004.1 |
| 20260505152037 | 21 | 128 | 11.3 | 22.5 | 0.00 | 0.05 | 0.00 | 77 | 1004.1 |
| 20260505151549 | 21 | 126 | 14.5 | 22.5 | 0.00 | 0.05 | 0.00 | 78 | 1004.0 |
| 20260505151039 | 21 | 123 | 8.0 | 22.5 | 0.00 | 0.05 | 0.00 | 79 | 1004.0 |
| 20260505150537 | 21 | 144 | 12.9 | 24.1 | 0.00 | 0.05 | 0.00 | 78 | 1004.0 |
| 20260505140542 | 20 | 124 | 6.4 | 14.5 | 0.00 | 0.05 | 0.00 | 79 | 1004.5 |
| 20260505125039 | 19 | 67 | 6.4 | 14.5 | 0.00 | 0.05 | 0.00 | 78 | 1005.0 |
| 20260505124547 | 19 | 82 | 3.2 | 12.9 | 0.00 | 0.05 | 0.00 | 78 | 1005.0 |
| 20260505124040 | 19 | 69 | 6.4 | 17.7 | 0.00 | 0.05 | 0.00 | 77 | 1004.8 |
| 20260505123542 | 19 | 78 | 6.4 | 17.7 | 0.00 | 0.05 | 0.00 | 77 | 1004.7 |
| 20260505123057 | 19 | 95 | 6.4 | 17.7 | 0.00 | 0.05 | 0.00 | 77 | 1004.7 |
| 20260505122542 | 19 | 77 | 4.8 | 12.9 | 0.00 | 0.05 | 0.00 | 77 | 1004.6 |
| 20260505122040 | 19 | 84 | 1.6 | 12.9 | 0.00 | 0.05 | 0.00 | 78 | 1004.6 |
| 20260505121546 | 19 | 78 | 3.2 | 12.9 | 0.00 | 0.05 | 0.00 | 77 | 1004.4 |
| 20260505121040 | 19 | 74 | 6.4 | 12.9 | 0.00 | 0.05 | 0.00 | 77 | 1004.2 |
| 20260505120540 | 19 | 360 | 3.2 | 9.7 | 0.00 | 0.05 | 0.00 | 77 | 1004.3 |
| 20260505120059 | 19 | 338 | 1.6 | 9.7 | 0.00 | 0.05 | 0.00 | 77 | 1004.3 |
| 20260505115539 | 19 | 95 | 3.2 | 12.9 | 0.00 | 0.05 | 0.00 | 77 | 1004.0 |
| 20260505115043 | 19 | 12 | 3.2 | 12.9 | 0.00 | 0.05 | 0.00 | 78 | 1003.8 |
| 20260505114544 | 19 | 63 | 1.6 | 12.9 | 0.00 | 0.05 | 0.00 | 78 | 1003.8 |
| 20260505114041 | 19 | 352 | 3.2 | 12.9 | 0.00 | 0.05 | 0.00 | 77 | 1003.6 |
| 20260505113536 | 19 | 62 | 6.4 | 17.7 | 0.00 | 0.05 | 0.00 | 77 | 1003.7 |
| 20260505113058 | 19 | 65 | 6.4 | 19.3 | 0.00 | 0.05 | 0.00 | 76 | 1003.6 |
| 20260505112606 | 20 | 94 | 11.3 | 19.3 | 0.00 | 0.05 | 0.00 | 76 | 1003.4 |
| 20260505112037 | 20 | 83 | 4.8 | 19.3 | 0.00 | 0.05 | 0.00 | 76 | 1003.6 |
| 20260505111552 | 20 | 70 | 4.8 | 19.3 | 0.00 | 0.05 | 0.00 | 76 | 1003.6 |
| 20260505111041 | 20 | 71 | 9.7 | 19.3 | 0.00 | 0.05 | 0.00 | 76 | 1003.5 |
| 20260505110540 | 20 | 80 | 9.7 | 19.3 | 0.00 | 0.05 | 0.00 | 76 | 1003.5 |
| 20260505102039 | 20 | 82 | 6.4 | 12.9 | 0.00 | 0.05 | 0.00 | 76 | 1003.0 |
| 20260505101547 | 20 | 95 | 3.2 | 12.9 | 0.00 | 0.05 | 0.00 | 76 | 1003.0 |
| 20260505101041 | 20 | 106 | 4.8 | 12.9 | 0.00 | 0.05 | 0.00 | 76 | 1002.9 |
| 20260505100541 | 20 | 114 | 4.8 | 14.5 | 0.00 | 0.05 | 0.00 | 76 | 1002.9 |
| 20260505100051 | 20 | 70 | 3.2 | 14.5 | 0.00 | 0.05 | 0.00 | 76 | 1002.9 |
| 20260505095537 | 20 | 98 | 6.4 | 14.5 | 0.00 | 0.05 | 0.00 | 76 | 1002.9 |
| 20260505095036 | 20 | 73 | 6.4 | 14.5 | 0.00 | 0.05 | 0.00 | 76 | 1002.9 |
| 20260505094550 | 20 | 95 | 6.4 | 17.7 | 0.00 | 0.05 | 0.00 | 76 | 1002.9 |
| 20260505094040 | 20 | 89 | 6.4 | 17.7 | 0.00 | 0.05 | 0.00 | 77 | 1003.1 |
| 20260505093540 | 19 | 82 | 6.4 | 14.5 | 0.00 | 0.05 | 0.00 | 77 | 1003.1 |
| 20260505093059 | 19 | 61 | 3.2 | 14.5 | 0.00 | 0.05 | 0.00 | 78 | 1003.0 |
| 20260505092539 | 19 | 119 | 1.6 | 8.0 | 0.00 | 0.05 | 0.00 | 79 | 1002.9 |
| 20260505092040 | 19 | 113 | 3.2 | 6.4 | 0.00 | 0.05 | 0.00 | 79 | 1003.2 |
| 20260505091553 | 19 | 95 | 0.0 | 3.2 | 0.00 | 0.05 | 0.00 | 79 | 1003.3 |
| 20260505091037 | 19 | 0 | 0.0 | 9.7 | 0.00 | 0.05 | 0.00 | 79 | 1003.4 |
| 20260505090540 | 19 | 0 | 3.2 | 12.9 | 0.00 | 0.05 | 0.00 | 78 | 1003.4 |
| 20260505090050 | 19 | 75 | 3.2 | 12.9 | 0.00 | 0.05 | 0.00 | 78 | 1003.3 |
| 20260505085538 | 19 | 86 | 4.8 | 8.0 | 0.00 | 0.05 | 0.00 | 79 | 1003.3 |
| 20260505085037 | 19 | 76 | 0.0 | 4.8 | 0.00 | 0.05 | 0.00 | 80 | 1003.5 |
| 20260505084554 | 19 | 0 | 0.0 | 0.0 | 0.00 | 0.05 | 0.00 | 80 | 1003.6 |
| 20260505084040 | 19 | 0 | 0.0 | 0.0 | 0.00 | 0.05 | 0.00 | 80 | 1003.5 |
| 20260505083538 | 19 | 0 | 0.0 | 0.0 | 0.00 | 0.05 | 0.00 | 80 | 1003.5 |
| 20260505083055 | 19 | 0 | 0.0 | 0.0 | 0.00 | 0.05 | 0.00 | 80 | 1003.5 |
| 20260505082538 | 19 | 0 | 0.0 | 0.0 | 0.00 | 0.05 | 0.00 | 80 | 1003.6 |
| 20260505082038 | 18 | 0 | 0.0 | 0.0 | 0.00 | 0.05 | 0.00 | 80 | 1003.7 |
| 20260505081552 | 19 | 0 | 0.0 | 0.0 | 0.00 | 0.05 | 0.00 | 80 | 1003.6 |
| 20260505081039 | 19 | 0 | 0.0 | 3.2 | 0.00 | 0.05 | 0.00 | 80 | 1003.5 |
| 20260505080538 | 19 | 0 | 0.0 | 4.8 | 0.00 | 0.05 | 0.00 | 80 | 1003.5 |
| 20260505080049 | 19 | 100 | 1.6 | 4.8 | 0.00 | 0.05 | 0.00 | 79 | 1003.5 |
| 20260505075540 | 19 | 100 | 1.6 | 4.8 | 0.00 | 0.05 | 0.00 | 78 | 1003.4 |
| 20260505075038 | 19 | 157 | 1.6 | 4.8 | 0.00 | 0.05 | 0.00 | 78 | 1003.3 |
| 20260505074549 | 19 | 0 | 0.0 | 4.8 | 0.00 | 0.05 | 0.00 | 78 | 1003.6 |
| 20260505074038 | 19 | 0 | 3.2 | 4.8 | 0.00 | 0.05 | 0.00 | 78 | 1003.7 |
| 20260505073542 | 19 | 344 | 1.6 | 6.4 | 0.00 | 0.05 | 0.00 | 77 | 1003.6 |
| 20260505073100 | 20 | 24 | 1.6 | 14.5 | 0.00 | 0.05 | 0.00 | 76 | 1003.1 |
| 20260505072539 | 20 | 112 | 4.8 | 16.1 | 0.00 | 0.05 | 0.00 | 76 | 1002.9 |
| 20260505072038 | 20 | 119 | 8.0 | 16.1 | 0.00 | 0.05 | 0.00 | 76 | 1002.9 |
| 20260505071551 | 20 | 129 | 8.0 | 16.1 | 0.00 | 0.05 | 0.00 | 76 | 1002.8 |
| 20260505071039 | 20 | 156 | 8.0 | 16.1 | 0.00 | 0.05 | 0.00 | 75 | 1002.8 |
| 20260505070539 | 20 | 138 | 8.0 | 14.5 | 0.00 | 0.05 | 0.00 | 75 | 1002.8 |